Back to catalog

STARLINK-37138

AliveCommunicationsSSO
NORAD 68308·PAYLOAD·🇺🇸 United States

Launched Mar 20, 2026 from Vandenberg Space Force Base

Loading…

Next Passes (next 24 hours)

TLE

FreshSource: CelesTrak SupGP

Epoch: Sep 14, 2026, 14:32 UTC

1 68308C 26057Q   26257.60604167  .00016460  00000+0  51143-3 0  2577
2 68308  97.2856  23.1278 0001402  90.8683 254.0597 15.33402007    16

Track STARLINK-37138 in real time with AllMySat

Download on the App Store